Regional Weather Roundup
Issued by NWS Austin/San Antonio, TX

Current Version | Previous Version | Text Only | Print | Product List | Glossary On
Versions: 1 2 3 4 5 6 7 8 9 10 11 12 13 14 15 16 17 18 19 20 21 22 23 24 25 26 27 28 29 30 31 32 33 34 35 36 37 38 39 40 41 42 43 44 45 46 47 48 49 50
000
ASUS44 KEWX 300001
RWREWX
SOUTH TEXAS REGIONAL WEATHER ROUNDUP
NATIONAL WEATHER SERVICE AUSTIN/SAN ANTONIO TX
700 PM CDT THU SEP 29 2022

NOTE: "FAIR" INDICATED FEW OR NO CLOUDS BELOW 12,000 FEET WITH NO
SIGNIFICANT WEATHER AND/OR OBSTRUCTIONS TO VISIBILITY.

* - THESE STATIONS ARE NOT NWS OR FAA STATIONS...AND ARE NOT SUBJECT
    TO NWS AND FAA QUALITY CONTROL.

TXZ171-172-183>190-300100-
TEXAS HILL COUNTRY AND EDWARDS PLATEAU

CITY           SKY/WX    TMP DP  RH WIND       PRES   REMARKS
JUNCTION       CLEAR     87  47  24 VRB3      30.10S
6HR MIN TEMP:  86; 6HR MAX TEMP:  92;

*LLANO         CLEAR     90  45  20 SW6       30.06S
BURNET         CLEAR     88  46  23 W5        30.08F
6HR MIN TEMP:  86; 6HR MAX TEMP:  92;

*HORSESHOE BAY CLEAR     88  43  21 CALM      30.06F
6HR MIN TEMP:  86; 6HR MAX TEMP:  92;

*LAGO VISTA      N/A     89  46  22 CALM      30.07F
6HR MIN TEMP:  89; 6HR MAX TEMP:  95;

*KERRVILLE     CLEAR     86  45  24 SE7       30.10S
6HR MIN TEMP:  85; 6HR MAX TEMP:  90;

*FREDERICKSBRG CLEAR     85  46  25 NE6       30.10S
*ROCKSPRINGS   CLEAR     82  45  26 SW6       30.19S
*BOERNE        CLEAR     86  43  22 S7        30.08S
*CASTROVILLE   CLEAR     91  43  18 S7        30.07S
HONDO          CLEAR     88  49  25 S5        30.06F
6HR MIN TEMP:  86; 6HR MAX TEMP:  92;

*UVALDE        CLEAR     86  48  26 W3        30.09F
6HR MIN TEMP:  83; 6HR MAX TEMP:  89;

DEL RIO        CLEAR     85  49  28 SE5       30.08S
6HR MIN TEMP:  84; 6HR MAX TEMP:  89;

*LAUGHLIN AFB  CLEAR     84  49  29 S6        30.06F
6HR MIN TEMP:  82; 6HR MAX TEMP:  87;

*SPOFFORD      CLEAR     86  50  28 N7        30.07F
6HR MIN TEMP:  84; 6HR MAX TEMP:  91;

CARRIZO SPRGS  CLEAR     88  48  25 SE7       30.06F
*FAITH RANCH   CLEAR     88  48  25 SE6G12    30.09S
$$

TXZ173-191>194-202-209-217>225-228-300100-
CENTRAL AND SOUTH CENTRAL TEXAS

CITY           SKY/WX    TMP DP  RH WIND       PRES   REMARKS
GEORGETOWN     CLEAR     87  48  25 E3        30.06F
6HR MIN TEMP:  84; 6HR MAX TEMP:  92;

*TAYLOR        CLEAR     88  48  25 E10       30.05S
AUSTIN/BERGSTM CLEAR     87  49  26 SE5       30.03F
6HR MIN TEMP:  85; 6HR MAX TEMP:  92;

AUSTIN/MABRY   CLEAR     87  48  25 SE3       30.05F
6HR MIN TEMP:  86; 6HR MAX TEMP:  94;

*PFLUGERVILLE  CLEAR     86  45  23 E3        30.03F
SAN MARCOS     CLEAR     93  46  20 E5        30.05F
6HR MIN TEMP:  88; 6HR MAX TEMP:  97;

NEW BRAUNFELS  CLEAR     89  47  23 E5        30.03F
6HR MIN TEMP:  86; 6HR MAX TEMP: 117;

*RANDOLPH AFB  CLEAR     87  45  22 SE7       30.02F
6HR MIN TEMP:  87; 6HR MAX TEMP:  92;

*SEGUIN        CLEAR     87  47  24 SE7       30.02F
6HR MIN TEMP:  86; 6HR MAX TEMP:  91;

SAN ANTONIO    CLEAR     88  46  23 SE7       30.05F
6HR MIN TEMP:  86; 6HR MAX TEMP:  92;

STINSON FIELD  CLEAR     88  48  25 S6        30.03S
6HR MIN TEMP:  87; 6HR MAX TEMP:  93;

*KELLY FIELD   CLEAR     88  48  24 SE8       30.03S
6HR MIN TEMP:  87; 6HR MAX TEMP:  92;

*PLEASANTON    CLEAR     89  50  26 S5        30.06F
*KENEDY        CLEAR     89  49  24 CALM      30.05F
*LA GRANGE     NOT AVBL
*GIDDINGS      CLEAR     85  47  26 E6        30.06S
6HR MIN TEMP:  83; 6HR MAX TEMP:  89;

*GONZALES      CLEAR     89  51  26 S5        30.04S
$$

TXZ163>164-176>182-195>201-210>213-226-227-235-300100-
SOUTHEAST TEXAS

CITY           SKY/WX    TMP DP  RH WIND       PRES   REMARKS
COLLEGE STN    CLEAR     83  49  30 NE6       30.06S
6HR MIN TEMP:  80; 6HR MAX TEMP:  89;

*BRYAN         CLEAR     83  49  30 NE5       30.09S
*CALDWELL      CLEAR     84  50  30 E5        30.06S
*CROCKETT      CLEAR     79  43  27 NE7       30.08S
*BRENHAM       CLEAR     85  49  28 E3          N/A
HUNTSVILLE     CLEAR     82  47  29 NE3       30.07S
6HR MIN TEMP:  79; 6HR MAX TEMP:  87;

CONROE         CLEAR     79  49  34 CALM      30.07S
6HR MIN TEMP:  78; 6HR MAX TEMP:  84;

HOUSTON BUSH   CLEAR     80  49  33 NE9       30.05S
6HR MIN TEMP:  78; 6HR MAX TEMP:  86;

HOUSTON HOBBY  CLEAR     83  46  27 N9        30.04F
6HR MIN TEMP:  81; 6HR MAX TEMP:  86;

*HOUSTON SW AP NOT AVBL
PEARLAND       CLEAR     82  49  31 N5        30.05F
6HR MIN TEMP:  80; 6HR MAX TEMP:  85;

HOUSTON HOOKS  CLEAR     82  49  31 NE6       30.05S
6HR MIN TEMP:  79; 6HR MAX TEMP:  87;

ELLINGTON FLD  CLEAR     81  46  30 N14       30.03F
SUGAR LAND     CLEAR     77  53  43 N3        30.04F
6HR MIN TEMP:  77; 6HR MAX TEMP:  87;

*HOUSTON EXEC  CLEAR     79  50  36 CALM      30.06F
*CLEVELAND MUN NOT AVBL
*WHARTON       CLEAR     80  48  32 E3        30.06S
6HR MIN TEMP:  80; 6HR MAX TEMP:  86;

*COLUMBUS      FAIR      83  50  31 CALM      30.05F
6HR MIN TEMP:  81; 6HR MAX TEMP:  88;

*EAGLE LAKE    CLEAR     85  48  27 MISG      30.04F
$$

TXZ214>216-236>238-300100-
THE UPPER TEXAS COAST

CITY           SKY/WX    TMP DP  RH WIND       PRES   REMARKS
*ORANGE        CLEAR     79  41  25 N3        30.06S
PORT ARTHUR    CLEAR     77  42  28 NE8       30.03S
6HR MIN TEMP:  77; 6HR MAX TEMP:  83;

GALVESTON      CLEAR     78  52  40 N7        30.04F
6HR MIN TEMP:  76; 6HR MAX TEMP:  81;

ANGLETON       CLEAR     74  54  49 CALM      30.05S
6HR MIN TEMP:  74; 6HR MAX TEMP:  86; 6HR PCP: TRACE;

*BAY CITY      CLEAR     81  54  39 CALM      30.05F
PALACIOS       CLEAR     78  60  53 S6        30.05S
6HR MIN TEMP:  78; 6HR MAX TEMP:  88;

$$

TXZ229>234-239>247-300100-
TEXAS COASTAL BEND AND RIO GRANDE PLAINS

CITY           SKY/WX    TMP DP  RH WIND       PRES   REMARKS
VICTORIA       CLEAR     84  55  36 E5        30.04F
6HR MIN TEMP:  84; 6HR MAX TEMP:  91;

*BEEVILLE      CLEAR     84  49  29 SE3       30.05S
6HR MIN TEMP:  84; 6HR MAX TEMP:  89;

ROCKPORT       CLEAR     80  62  54 SE5       30.05F
6HR MIN TEMP:  80; 6HR MAX TEMP:  88;

*PORT ARANSAS  CLEAR    N/A N/A N/A SE6       30.08S
*PORT LAVACA   CLEAR     86  47  25 NE5       30.05
*INGLESIDE     NOT AVBL
CORPUS CHRISTI CLEAR     85  63  47 E9        30.05F
6HR MIN TEMP:  85; 6HR MAX TEMP:  92;

CORPUS NAS     NOT AVBL
*ROBSTOWN      CLEAR     86  53  31 MISG      30.05F
ALICE          CLEAR     85  57  38 N3        30.05F
6HR MIN TEMP:  85; 6HR MAX TEMP:  90;

KINGSVILLE NAS NOT AVBL
COTULLA        CLEAR     87  50  27 SE6       30.06F
6HR MIN TEMP:  87; 6HR MAX TEMP:  93;

LAREDO         CLEAR     88  54  31 E9        30.06F
6HR MIN TEMP:  85; 6HR MAX TEMP:  91;

$$

TXZ248>255-300100-
DEEP SOUTH TEXAS

CITY           SKY/WX    TMP DP  RH WIND       PRES   REMARKS
BROWNSVILLE    CLEAR     81  62  52 NE8       30.06S
6HR MIN TEMP:  81; 6HR MAX TEMP:  89;

PORT ISABEL    CLEAR     81  63  54 NE7       30.06S
6HR MIN TEMP:  81; 6HR MAX TEMP:  87;

HARLINGEN      CLEAR     81  60  48 E10       30.06S
6HR MIN TEMP:  81; 6HR MAX TEMP:  90;

*HEBBRONVILLE  CLEAR     86  53  31 CALM      30.09S
MCALLEN        CLEAR     86  54  33 E9        30.06S
6HR MIN TEMP:  86; 6HR MAX TEMP:  91;

*WESLACO       CLEAR     85  54  34 NE8       30.06
FALFURRIAS     CLEAR     84  58  40 E5        30.05S
EDINBURG


USA.gov is the U.S. government's official web portal to all federal, state and local government web resources and services.